Location: Auttagershofen
(48.1940°N, 10.0237°E)
Time: 15:37:09
(UTC+00:00)

Meteor 2-5 Rocket - Pass Details

Date: 18 January 2026
Orbit: 832 x 910 km, 81.2° (Epoch: 10 February)

Event Time Altitude Azimuth Distance (km) Brightness Sun altitude
Rises 05:49:20 0° 347° (NNW) 3,506 6.6 -12.1°
Reaches altitude 10° 05:51:46 10° 347° (NNW) 2,572 5.9 -11.7°
Maximum altitude 05:57:40 85° 260° (W) 912 3.8 -10.8°
Drops below altitude 10° 06:03:35 10° 173° (S) 2,587 6.6 -9.8°
Sets 06:06:03 0° 173° (S) 3,526 7.3 -9.5°
